Location: Bartshausen
(51.8454°N, 9.8167°E)
Time: 06:15:12
(UTC+00:00)

Cosmos 2322 - Pass Details

Date: 08 November 2025
Orbit: 841 x 852 km, 71.0° (Epoch: 11 December)

Event Time Altitude Azimuth Distance (km) Brightness Sun altitude
Exits shadow 04:49:46 - 228° (SW) 2,602 5.9 -15.3°
Reaches altitude 10° 04:50:07 10° 229° (SW) 2,468 5.7 -15.2°
Maximum altitude 04:55:41 55° 307° (NW) 1,015 3.8 -14.4°
Drops below altitude 10° 05:01:15 10° 25° (NNE) 2,475 6.3 -13.5°
Sets 05:03:46 0° 30° (NNE) 3,412 7.1 -13.1°
